Location: Wiesbaden
(50.0830°N, 8.2500°E)
Time: 20:30:04
(UTC+02:00)

ISS - Pass Details

Date: 18 July 2019
Orbit: 409 x 418 km, 51.6° (Epoch: 20 July)

Event Time Altitude Azimuth Distance (km) Brightness Sun altitude
Rises 01:27:51 0° 272° (W) 2,350 0.1 -18.8°
Reaches altitude 10° 01:29:58 10° 276° (W) 1,486 -0.9 -18.8°
Maximum altitude 01:33:17 64° 359° (N) 461 -3.4 -18.8°
Drops below altitude 10° 01:36:35 10° 82° (E) 1,482 -0.9 -18.8°
Sets 01:38:41 0° 85° (E) 2,342 0.1 -18.8°
